Regional Weather Roundup
Issued by NWS

Home | Current Version | Previous Version | Text Only | Print | Product List | Glossary Off
Versions: 1 2 3 4 5 6 7 8 9 10 11 12 13 14 15 16 17 18 19 20 21 22 23 24 25 26 27

000
ASUS43 KDMX 161807
RWRIA

WEATHER ROUNDUP FOR IOWA
NATIONAL WEATHER SERVICE DES MOINES IA
100 PM CDT WED APR 16 2014

NOTE: "FAIR" INDICATES FEW OR NO CLOUDS BELOW 12,000 FEET WITH NO
SIGNIFICANT WEATHER AND/OR OBSTRUCTIONS TO VISIBILITY.

* - THESE STATIONS ARE NOT NWS STATIONS...THUS NOT UNDER NWS
QUALITY CONTROL.  THEY ALSO DO NOT REPORT WEATHER SUCH
AS PRECIPITATION OR FOG.

IAZ001>003-012>014-020>022-031>034-043>046-161900-
   NORTHWEST IOWA

CITY           SKY/WX    TMP DP  RH WIND       PRES   REMARKS
DENISON *        N/A     55  30  38 S28G41    29.70R
SIOUX CITY       N/A     59  27  29 S26G36    29.68F
6HR MIN TEMP:  48; 6HR MAX TEMP:  61;

SPENCER        PTSUNNY   54  31  41 S26G35    29.69F
6HR MIN TEMP:  40; 6HR MAX TEMP:  54;

STORM LAKE *     N/A     54  32  43 S22G31    29.71F
$$

IAZ055>058-069>071-079>083-090>094-161900-
   SOUTHWEST IOWA

CITY           SKY/WX    TMP DP  RH WIND       PRES   REMARKS
LAMONI           N/A     58  30  34 S23G39    29.85F
6HR MIN TEMP:  40; 6HR MAX TEMP:  59;

$$

IAZ047>049-059>061-072>074-084-161900-
   CENTRAL IOWA

CITY           SKY/WX    TMP DP  RH WIND       PRES   REMARKS
AMES             N/A     59  29  31 S33G44    29.80F
6HR MIN TEMP:  37; 6HR MAX TEMP:  61;

DES MOINES     CLOUDY    63  30  28 S32G40    29.83F
6HR MIN TEMP:  43; 6HR MAX TEMP:  63;

GRINNELL*        N/A     57  32  38 S25G36    29.90F
MARSHALLTOWN     N/A     57  32  38 S26G36    29.86F
6HR MIN TEMP:  36; 6HR MAX TEMP:  57;

PERRY *          N/A     60  28  29 S31G39    29.77F
$$

IAZ004>006-015-016-023>025-035-036-161900-
   NORTH CENTRAL IOWA

CITY           SKY/WX    TMP DP  RH WIND       PRES   REMARKS
CLARION *        N/A     55  32  41 S28G33    29.78F
ESTHERVILLE      N/A     54  33  45 S26G38    29.71F
6HR MIN TEMP:  36; 6HR MAX TEMP:  54;

FORT DODGE *     N/A     55  34  44 S22G30    29.78F
MASON CITY       N/A     57  33  40 S20G36    29.81F
6HR MIN TEMP:  35; 6HR MAX TEMP:  57;

IOWA FALLS *     N/A     60  32  35 S30G43    29.82F
$$

IAZ007>011-017>019-026>030-037>042-050>054-066-161900-
   NORTHEAST IOWA

CITY           SKY/WX    TMP DP  RH WIND       PRES   REMARKS
CEDAR RAPIDS     N/A     56  31  38 SE23G37   29.96F
6HR MIN TEMP:  36; 6HR MAX TEMP:  56;

CHARLES CITY * CLOUDY    50  32  50 S24G38    29.87S
CLINTON *        N/A     54  28  37 S29G36    30.11F
DECORAH *        N/A     50  32  50 SE18G28   29.91F
DUBUQUE          N/A     50  29  44 S31G39    30.02F
6HR MIN TEMP:  32; 6HR MAX TEMP:  50;

MONTICELLO *     N/A     54  34  47 S29G41    30.00F
WATERLOO         N/A     55  31  39 S25G37    29.88F
6HR MIN TEMP:  37; 6HR MAX TEMP:  56;

$$

IAZ064-065-067-068-078-161900-
   EAST CENTRAL IOWA

CITY           SKY/WX    TMP DP  RH WIND       PRES   REMARKS
DAVENPORT        N/A     54  30  40 S29G39    30.08F
6HR MIN TEMP:  35; 6HR MAX TEMP:  54;

IOWA CITY        N/A     55  33  43 SE29G37   30.01F
6HR MIN TEMP:  34; 6HR MAX TEMP:  55;

QUAD CITIES      N/A     55  26  32 S23G32    30.08F
6HR MIN TEMP:  35; 6HR MAX TEMP:  55;

$$

IAZ062-063-075>077-085>089-095>099-161900-
   SOUTHEAST IOWA

CITY           SKY/WX    TMP DP  RH WIND       PRES   REMARKS
BURLINGTON       N/A     56  30  37 S23G35    30.06F
6HR MIN TEMP:  37; 6HR MAX TEMP:  56;

OSKALOOSA *      N/A     60  33  35 S33G44    29.93F
OTTUMWA          N/A     60  32  34 S26G44    29.93F
6HR MIN TEMP:  37; 6HR MAX TEMP:  60;

$$

ABBREVIATIONS USED IN REMARKS
   TC - TEMPERATURES IN CELSIUS
  WCI - WIND CHILL INDEX
   HX - HEAT INDEX
  VSB - VISIBILITY
$$




USA.gov is the U.S. government's official web portal to all federal, state and local government web resources and services.